When you browse on this site, cookies collect data to enhance your experience and personalize the content and advertising you see.
Visit our Privacy Policy to learn more. By continuing to use the site, you agree to this use of cookies and data.
  • In Hungary
  • List of Countries
  • For 7 days
  • Water Temperature
  • Satellite Maps
  • Weather Map
  • News
  • Weather Widgets
  • user-avatar
    Login

    Hourly Weather Kambam

    Today, 19 July, Friday

    Time Temperature Precipitation Wind Pressure Humidity
    00:00 +27°C° 1.6 mm 2 mps 719 mmHg 87%
    01:00 +26°C° 1.6 mm 3 mps 718 mmHg 87%
    02:00 +26°C° 1.6 mm 3 mps 718 mmHg 87%
    03:00 +26°C° 4.5 mm 2 mps 718 mmHg 88%
    04:00 +26°C° 4.5 mm 2 mps 718 mmHg 90%
    05:00 +26°C° 4.5 mm 2 mps 718 mmHg 91%
    06:00 +26°C° 2.4 mm 2 mps 718 mmHg 89%
    07:00 +27°C° 2.4 mm 2 mps 719 mmHg 88%
    08:00 +27°C° 2.4 mm 2 mps 719 mmHg 86%
    09:00 +27°C° 3.8 mm 3 mps 719 mmHg 85%
    10:00 +27°C° 3.8 mm 3 mps 719 mmHg 84%
    11:00 +28°C° 3.8 mm 3 mps 720 mmHg 84%
    12:00 +27°C° 6.6 mm 4 mps 719 mmHg 84%
    13:00 +27°C° 6.6 mm 4 mps 718 mmHg 84%
    14:00 +27°C° 6.6 mm 5 mps 718 mmHg 84%
    15:00 +27°C° 6.2 mm 5 mps 718 mmHg 85%
    16:00 +26°C° 6.2 mm 6 mps 718 mmHg 85%
    17:00 +26°C° 6.2 mm 6 mps 718 mmHg 85%
    18:00 +26°C° 2.5 mm 6 mps 718 mmHg 86%
    19:00 +26°C° 2.5 mm 6 mps 719 mmHg 87%
    20:00 +26°C° 2.5 mm 6 mps 719 mmHg 87%
    21:00 +25°C° 5 mm 5 mps 719 mmHg 88%
    22:00 +25°C° 5 mm 5 mps 719 mmHg 89%
    23:00 +25°C° 5 mm 5 mps 720 mmHg 90%

    Tomorrow, 20 July, Saturday

    Time Temperature Precipitation Wind Pressure Humidity
    00:00 +25°C° 2.9 mm 5 mps 719 mmHg 90%
    01:00 +25°C° 2.9 mm 5 mps 719 mmHg 90%
    02:00 +25°C° 2.9 mm 5 mps 718 mmHg 89%
    03:00 +25°C° 0.8 mm 5 mps 718 mmHg 89%
    04:00 +25°C° 0.8 mm 5 mps 719 mmHg 88%
    05:00 +25°C° 0.8 mm 5 mps 719 mmHg 88%
    06:00 +25°C° 0.2 mm 5 mps 719 mmHg 87%
    07:00 +26°C° 0.2 mm 4 mps 719 mmHg 86%
    08:00 +26°C° 0.2 mm 4 mps 720 mmHg 86%
    09:00 +27°C° 0 mm 4 mps 720 mmHg 83%
    10:00 +27°C° 0 mm 4 mps 720 mmHg 80%
    11:00 +28°C° 0 mm 4 mps 720 mmHg 77%
    12:00 +28°C° 0.1 mm 4 mps 719 mmHg 75%
    13:00 +29°C° 0.1 mm 5 mps 719 mmHg 72%
    14:00 +30°C° 0.1 mm 5 mps 719 mmHg 70%
    15:00 +29°C° 0.2 mm 5 mps 718 mmHg 73%
    16:00 +28°C° 0.2 mm 5 mps 718 mmHg 76%
    17:00 +27°C° 0.2 mm 5 mps 718 mmHg 79%
    18:00 +27°C° 0.1 mm 4 mps 719 mmHg 81%
    19:00 +27°C° 0.1 mm 4 mps 719 mmHg 82%
    20:00 +26°C° 0.1 mm 4 mps 720 mmHg 84%
    21:00 +26°C° 0.1 mm 4 mps 720 mmHg 84%
    22:00 +26°C° 0.1 mm 4 mps 720 mmHg 84%
    23:00 +26°C° 0.1 mm 3 mps 720 mmHg 85%

    Day after tomorrow, 21 July, Sunday

    Time Temperature Precipitation Wind Pressure Humidity
    00:00 +26°C° 0.1 mm 3 mps 720 mmHg 85%
    01:00 +26°C° 0.1 mm 3 mps 719 mmHg 85%
    02:00 +26°C° 0.1 mm 3 mps 718 mmHg 86%
    03:00 +26°C° 0.2 mm 3 mps 718 mmHg 86%
    04:00 +26°C° 0.2 mm 3 mps 718 mmHg 87%
    05:00 +26°C° 0.2 mm 3 mps 718 mmHg 88%
    06:00 +26°C° 0.4 mm 3 mps 719 mmHg 87%
    07:00 +26°C° 0.4 mm 3 mps 719 mmHg 86%
    08:00 +27°C° 0.4 mm 3 mps 720 mmHg 86%
    09:00 +27°C° 0.3 mm 3 mps 720 mmHg 84%
    10:00 +27°C° 0.3 mm 4 mps 720 mmHg 82%
    11:00 +28°C° 0.3 mm 4 mps 720 mmHg 80%
    12:00 +27°C° 0.9 mm 4 mps 719 mmHg 81%
    13:00 +27°C° 0.9 mm 3 mps 719 mmHg 83%
    14:00 +27°C° 0.9 mm 3 mps 718 mmHg 84%
    15:00 +27°C° 1.2 mm 3 mps 718 mmHg 85%
    16:00 +27°C° 1.2 mm 4 mps 718 mmHg 85%
    17:00 +27°C° 1.2 mm 4 mps 717 mmHg 85%
    18:00 +27°C° 0.9 mm 4 mps 718 mmHg 86%
    19:00 +27°C° 0.9 mm 4 mps 718 mmHg 87%
    20:00 +26°C° 0.9 mm 4 mps 719 mmHg 87%
    21:00 +26°C° 2 mm 4 mps 719 mmHg 88%
    22:00 +26°C° 2 mm 3 mps 719 mmHg 88%
    23:00 +26°C° 2 mm 3 mps 719 mmHg 88%

    22 July, Monday

    Time Temperature Precipitation Wind Pressure Humidity
    00:00 +26°C° 9 mm 3 mps 718 mmHg 90%
    01:00 +26°C° 9 mm 3 mps 718 mmHg 92%
    02:00 +25°C° 9 mm 3 mps 717 mmHg 94%
    03:00 +25°C° 11.2 mm 3 mps 717 mmHg 94%
    04:00 +25°C° 11.2 mm 3 mps 718 mmHg 95%
    05:00 +25°C° 11.2 mm 3 mps 718 mmHg 95%
    06:00 +25°C° 5.9 mm 3 mps 718 mmHg 94%
    07:00 +25°C° 5.9 mm 3 mps 719 mmHg 93%
    08:00 +25°C° 5.9 mm 3 mps 719 mmHg 93%
    09:00 +25°C° 1.4 mm 3 mps 719 mmHg 91%
    10:00 +25°C° 1.4 mm 4 mps 719 mmHg 90%
    11:00 +26°C° 1.4 mm 4 mps 719 mmHg 89%
    12:00 +26°C° 0.3 mm 4 mps 719 mmHg 87%
    13:00 +26°C° 0.3 mm 4 mps 718 mmHg 86%
    14:00 +26°C° 0.3 mm 5 mps 717 mmHg 85%
    15:00 +26°C° 0.4 mm 5 mps 717 mmHg 85%
    16:00 +26°C° 0.4 mm 5 mps 717 mmHg 86%
    17:00 +26°C° 0.4 mm 5 mps 717 mmHg 87%
    18:00 +26°C° 0.4 mm 5 mps 718 mmHg 87%
    19:00 +26°C° 0.4 mm 4 mps 718 mmHg 88%
    20:00 +25°C° 0.4 mm 4 mps 719 mmHg 88%
    21:00 +25°C° 0.4 mm 4 mps 719 mmHg 88%
    22:00 +25°C° 0.4 mm 4 mps 719 mmHg 89%
    23:00 +25°C° 0.4 mm 5 mps 719 mmHg 89%

    23 July, Tuesday

    Time Temperature Precipitation Wind Pressure Humidity
    00:00 +25°C° 0.9 mm 4 mps 718 mmHg 89%
    01:00 +25°C° 0.9 mm 4 mps 718 mmHg 90%
    02:00 +25°C° 0.9 mm 4 mps 717 mmHg 90%
    03:00 +25°C° 2.2 mm 4 mps 717 mmHg 90%
    04:00 +25°C° 2.2 mm 4 mps 717 mmHg 90%
    05:00 +25°C° 2.2 mm 4 mps 717 mmHg 91%
    06:00 +25°C° 0.8 mm 4 mps 718 mmHg 90%
    07:00 +26°C° 0.8 mm 4 mps 718 mmHg 88%
    08:00 +26°C° 0.8 mm 4 mps 719 mmHg 87%
    09:00 +26°C° 0.3 mm 4 mps 719 mmHg 86%
    10:00 +26°C° 0.3 mm 4 mps 719 mmHg 84%
    11:00 +27°C° 0.3 mm 4 mps 719 mmHg 83%
    12:00 +26°C° 0.3 mm 4 mps 718 mmHg 83%
    13:00 +26°C° 0.3 mm 4 mps 718 mmHg 84%
    14:00 +26°C° 0.3 mm 4 mps 717 mmHg 84%
    15:00 +26°C° 0.2 mm 4 mps 717 mmHg 85%
    16:00 +26°C° 0.2 mm 4 mps 717 mmHg 86%
    17:00 +25°C° 0.2 mm 4 mps 717 mmHg 87%
    18:00 +25°C° 0.2 mm 4 mps 718 mmHg 87%
    19:00 +25°C° 0.2 mm 4 mps 718 mmHg 88%
    20:00 +25°C° 0.2 mm 4 mps 719 mmHg 88%
    21:00 +25°C° 0.4 mm 4 mps 719 mmHg 88%
    22:00 +25°C° 0.4 mm 4 mps 719 mmHg 89%
    23:00 +25°C° 0.4 mm 4 mps 719 mmHg 89%

    24 July, Wednesday

    Time Temperature Precipitation Wind Pressure Humidity
    00:00 +25°C° 0.4 mm 4 mps 719 mmHg 89%
    01:00 +25°C° 0.4 mm 4 mps 718 mmHg 89%
    02:00 +25°C° 0.4 mm 4 mps 718 mmHg 89%
    03:00 +25°C° 0.5 mm 3 mps 718 mmHg 89%
    04:00 +25°C° 0.5 mm 3 mps 718 mmHg 90%
    05:00 +25°C° 0.5 mm 3 mps 718 mmHg 90%
    06:00 +25°C° 0.3 mm 3 mps 718 mmHg 89%
    07:00 +25°C° 0.3 mm 3 mps 719 mmHg 89%
    08:00 +25°C° 0.3 mm 2 mps 719 mmHg 89%
    09:00 +26°C° 0.4 mm 3 mps 719 mmHg 87%
    10:00 +26°C° 0.4 mm 3 mps 719 mmHg 85%
    11:00 +27°C° 0.4 mm 3 mps 719 mmHg 83%
    12:00 +27°C° 0.2 mm 3 mps 719 mmHg 83%
    13:00 +27°C° 0.2 mm 3 mps 718 mmHg 83%
    14:00 +27°C° 0.2 mm 3 mps 718 mmHg 83%
    15:00 +27°C° 0.3 mm 3 mps 718 mmHg 84%
    16:00 +27°C° 0.3 mm 3 mps 718 mmHg 85%
    17:00 +26°C° 0.3 mm 3 mps 718 mmHg 86%
    18:00 +26°C° 0.1 mm 3 mps 718 mmHg 87%
    19:00 +26°C° 0.1 mm 3 mps 719 mmHg 87%
    20:00 +26°C° 0.1 mm 3 mps 719 mmHg 87%
    21:00 +26°C° 0.1 mm 3 mps 720 mmHg 88%
    22:00 +26°C° 0.1 mm 3 mps 720 mmHg 88%
    23:00 +26°C° 0.1 mm 3 mps 720 mmHg 88%
    Show more